Overview Statistics Trail Chart Weather Telemetry Raw packets
 

This is the latest recevied weather packets stored in our database for station/object KD4EG. If no packets are shown the sender has not sent any weather packets the latest 10 day(s).

<< 40 41 42 43 44 45 46 >>
Time Temp. Humidity Pressure Rain* Wind** Luminosity Snow
1788375104 36.11° C 46% 1020.6 hPa 0 mm - 255 W/m² -
1788374804 36.11° C 46% 1020.5 hPa 0 mm - 622 W/m² -
1788374499 36.11° C 45% 1020.7 hPa 0 mm - 742 W/m² -
1788374195 36.11° C 45% 1020.7 hPa 0 mm - 439 W/m² -
1788373891 36.11° C 45% 1020.7 hPa 0 mm - 336 W/m² -
1788373587 35.56° C 47% 1020.6 hPa 0 mm - 785 W/m² -
1788373284 36.11° C 46% 1021 hPa 0 mm - 302 W/m² -
1788372980 36.11° C 45% 1020.8 hPa 0 mm - 773 W/m² -
1788372679 35.56° C 46% 1021.2 hPa 0 mm - 590 W/m² -
1788372379 36.11° C 43% 1020.9 hPa 0 mm - 672 W/m² -
1788372075 36.11° C 47% 1020.8 hPa 0 mm - 642 W/m² -
1788371774 35° C 46% 1021 hPa 0 mm - 627 W/m² -
1788371470 35.56° C 46% 1021 hPa 0 mm - 652 W/m² -
1788371167 35.56° C 46% 1021.3 hPa 0 mm - 645 W/m² -
1788370862 35° C 47% 1021.2 hPa 0 mm - 637 W/m² -
1788370562 35° C 47% 1021.1 hPa 0 mm - 656 W/m² -
1788370257 35° C 47% 1021.3 hPa 0 mm - 669 W/m² -
1788369951 35° C 48% 1021.5 hPa 0 mm - 680 W/m² -
1788369645 35° C 47% 1021.3 hPa 0 mm - 661 W/m² -
1788369341 35° C 47% 1021.4 hPa 0 mm - 588 W/m² -
1788369037 35.56° C 46% 1021.5 hPa 0 mm - 554 W/m² -
1788368732 35° C 47% 1021.7 hPa 0 mm - 606 W/m² -
1788368428 34.44° C 48% 1021.4 hPa 0 mm - 657 W/m² -
1788368122 34.44° C 49% 1021.8 hPa 0 mm - 642 W/m² -
1788367822 33.89° C 50% 1021.8 hPa 0 mm - 644 W/m² -

* Rain latest hour (hover to see other rain measurements)
** Current wind speed in m/s (hover to see current wind gust speed)